Date,TemperatureHighF,TemperatureAvgF,TemperatureLowF,DewpointHighF,DewpointAvgF,DewpointLowF,HumidityHigh,HumidityAvg,HumidityLow,PressureMaxIn,PressureMinIn,WindSpeedMaxMPH,WindSpeedAvgMPH,GustSpeedMaxMPH,PrecipitationSumIn
2014-1-1,23,17,13,-19,-29,-33,18,10,10,30.12,29.95,16,5,16,0.00
2014-1-2,13,8,-3,-18,-27,-45,24,19,10,30.05,29.68,12,5,12,0.00
2014-1-3,11,1,-6,-35,-43,-48,10,10,10,30.16,29.69,15,4,15,0.00
2014-1-4,33,19,-4,-18,-28,-46,10,10,10,30.11,29.78,18,5,18,0.00
2014-1-5,36,31,23,26,-12,-25,71,18,10,29.91,29.23,9,3,11,0.12
2014-1-6,52,30,5,44,1,-39,89,34,10,29.52,28.99,34,11,34,0.20
2014-1-7,7,4,-1,-26,-39,-44,21,11,10,29.99,29.51,34,12,34,0.01
2014-1-8,24,13,6,-13,-27,-39,27,15,10,30.17,29.99,18,4,18,0.00
2014-1-9,31,20,15,-13,-22,-28,26,14,10,30.37,30.15,21,4,21,0.00
2014-1-10,39,30,17,21,9,-14,61,43,22,30.17,29.76,8,1,8,0.07
2014-1-11,55,47,32,42,32,17,79,57,32,29.76,28.96,35,6,35,0.20
2014-1-12,41,35,28,21,14,5,63,41,30,29.72,29.16,31,7,31,0.00
2014-1-13,52,43,26,30,3,-9,62,24,10,29.70,29.43,14,4,14,0.06
2014-1-14,45,40,29,38,30,17,81,67,49,29.58,29.38,10,2,10,0.12
2014-1-15,40,31,26,27,11,-6,67,44,20,29.72,29.52,11,2,11,0.00
2014-1-16,42,30,23,9,-3,-19,47,26,10,29.73,29.59,8,2,8,0.00
2014-1-17,43,33,25,14,-4,-19,51,24,10,29.60,29.54,14,3,14,0.00
2014-1-18,30,24,20,19,4,-12,64,44,23,29.60,29.50,17,4,17,0.00
2014-1-19,31,25,15,5,-11,-24,42,22,10,29.59,29.20,21,5,21,0.00
2014-1-20,31,22,7,17,-4,-19,58,33,14,29.75,29.24,18,4,18,0.00
2014-1-21,10,0,-10,-18,-41,-52,29,12,10,29.87,29.74,13,3,13,0.00
2014-1-22,10,-6,-23,-36,-48,-62,10,10,10,29.85,29.73,12,2,12,0.00
2014-1-23,20,6,-1,-24,-36,-44,21,12,10,30.02,29.77,12,2,12,0.00
2014-1-24,21,12,0,-25,-32,-44,20,12,10,30.07,29.48,19,6,19,0.00
2014-1-25,28,21,12,4,-19,-34,44,18,10,29.48,29.00,24,8,24,0.00
2014-1-26,26,14,4,-18,-28,-37,25,14,10,29.51,29.26,27,5,27,0.00
2014-1-27,36,21,6,16,-24,-39,56,14,10,29.83,29.01,35,10,35,0.00
2014-1-28,16,4,-8,-31,-40,-49,10,10,10,30.06,29.83,24,6,24,0.00
2014-1-29,20,8,-8,-28,-37,-50,10,10,10,29.98,29.76,30,6,30,0.00
2014-1-30,34,20,2,-17,-27,-42,10,10,10,30.07,29.64,17,6,17,0.00
2014-1-31,36,31,26,-16,-19,-23,10,10,10,29.91,29.65,15,4,15,0.00